Powrót do katalogu

STARLINK-37064

AktywnyŁącznośćSSO
NORAD 68157·PAYLOAD·🇺🇸 United States

Wystrzelony Mar 13, 2026 z Vandenberg Space Force Base

Loading…

Następne Przeloty (najbliższe 24 godziny)

TLE

ŚwieżeSource: CelesTrak SupGP

Epoka: Sep 15, 2026, 02:53 UTC

1 68157C 26049R   26258.12062500 -.00051535  00000+0 -15998-2 0  2589
2 68157  97.2836 278.1993 0001264  89.2215 124.4418 15.33465269    12

Śledź STARLINK-37064 w czasie rzeczywistym z AllMySat

Download on the App Store